This is the latest recevied weather packets stored in our database for station/object TONGUE. If no packets are shown the sender has not sent any weather packets the latest 10 day(s).
| Time | Temp. | Humidity | Pressure | Rain* | Wind** | Luminosity | Snow |
|---|---|---|---|---|---|---|---|
| 1777497002 | 14.44° C | 71% | 0 hPa | - | - | - | - |
| 1777496403 | 13.89° C | 71% | 0 hPa | - | - | - | - |
| 1777495803 | 13.89° C | 72% | 0 hPa | - | - | - | - |
| 1777495203 | 14.44° C | 71% | 0 hPa | - | - | - | - |
| 1777494603 | 13.89° C | 72% | 0 hPa | - | - | - | - |
| 1777494003 | 13.89° C | 69% | 0 hPa | - | - | - | - |
| 1777493402 | 13.89° C | 70% | 0 hPa | - | - | - | - |
| 1777492803 | 13.33° C | 68% | 0 hPa | - | - | - | - |
| 1777492203 | 13.33° C | 68% | 0 hPa | - | - | - | - |
| 1777491004 | 12.78° C | 72% | 0 hPa | - | - | - | - |
| 1777490403 | 12.78° C | 70% | 0 hPa | - | - | - | - |
| 1777489802 | 12.78° C | 69% | 0 hPa | - | - | - | - |
| 1777489203 | 13.33° C | 67% | 0 hPa | - | - | - | - |
| 1777488603 | 14.44° C | 66% | 0 hPa | - | - | - | - |
| 1777488003 | 13.33° C | 64% | 0 hPa | - | - | - | - |
| 1777487404 | 13.33° C | 64% | 0 hPa | - | - | - | - |
| 1777486803 | 13.33° C | 65% | 0 hPa | - | - | - | - |
| 1777486203 | 12.78° C | 66% | 0 hPa | - | - | - | - |
| 1777485603 | 12.78° C | 66% | 0 hPa | - | - | - | - |
| 1777485003 | 11.67° C | 66% | 0 hPa | - | - | - | - |
| 1777484403 | 11.67° C | 65% | 0 hPa | - | - | - | - |
| 1777483803 | 11.11° C | 70% | 0 hPa | - | - | - | - |
| 1777483203 | 11.11° C | 74% | 0 hPa | - | - | - | - |
| 1777482603 | 11.11° C | 76% | 0 hPa | - | - | - | - |
| 1777482003 | 10.56° C | 78% | 0 hPa | - | - | - | - |
* Rain since midnight (hover to see other rain measurements)
** Current wind speed in m/s (hover to see current wind gust speed)